• In Italy
  • List of Countries
  • For 7 days
  • Water Temperature
  • Satellite Maps
  • Weather Map
  • Weather Widgets
  • user-avatar
    Login

    Hourly Weather Sidi Bu-l-Abbas

    Today, 20 November, Monday

    Time Temperature Precipitation Wind Pressure Humidity
    00:00 +13°C° 0 mm 1 mps 723 mmHg 38%
    01:00 +13°C° 0 mm 1 mps 723 mmHg 37%
    02:00 +13°C° 0 mm 1 mps 723 mmHg 37%
    03:00 +12°C° 0 mm 1 mps 723 mmHg 37%
    04:00 +12°C° 0 mm 1 mps 723 mmHg 37%
    05:00 +12°C° 0 mm 1 mps 723 mmHg 36%
    06:00 +12°C° 0 mm 1 mps 723 mmHg 36%
    07:00 +14°C° 0 mm 1 mps 724 mmHg 32%
    08:00 +16°C° 0 mm 1 mps 724 mmHg 28%
    09:00 +18°C° 0 mm 2 mps 725 mmHg 24%
    10:00 +20°C° 0 mm 1 mps 725 mmHg 22%
    11:00 +21°C° 0 mm 1 mps 725 mmHg 20%
    12:00 +22°C° 0 mm 1 mps 725 mmHg 18%
    13:00 +22°C° 0 mm 1 mps 725 mmHg 18%
    14:00 +23°C° 0 mm 1 mps 724 mmHg 17%
    15:00 +23°C° 0 mm 2 mps 724 mmHg 17%
    16:00 +20°C° 0 mm 2 mps 724 mmHg 21%
    17:00 +18°C° 0 mm 2 mps 724 mmHg 25%
    18:00 +17°C° 0 mm 2 mps 724 mmHg 29%
    19:00 +16°C° 0 mm 1 mps 724 mmHg 30%
    20:00 +15°C° 0 mm 1 mps 724 mmHg 31%
    21:00 +15°C° 0 mm 1 mps 724 mmHg 32%
    22:00 +14°C° 0 mm 1 mps 724 mmHg 31%
    23:00 +14°C° 0 mm 1 mps 724 mmHg 31%

    Tomorrow, 21 November, Tuesday

    Time Temperature Precipitation Wind Pressure Humidity
    00:00 +14°C° 0 mm 1 mps 724 mmHg 30%
    01:00 +13°C° 0 mm 1 mps 724 mmHg 30%
    02:00 +13°C° 0 mm 1 mps 723 mmHg 29%
    03:00 +13°C° 0 mm 1 mps 723 mmHg 29%
    04:00 +12°C° 0 mm 1 mps 723 mmHg 29%
    05:00 +12°C° 0 mm 1 mps 723 mmHg 29%
    06:00 +12°C° 0 mm 2 mps 723 mmHg 29%
    07:00 +14°C° 0 mm 2 mps 723 mmHg 26%
    08:00 +16°C° 0 mm 2 mps 724 mmHg 24%
    09:00 +17°C° 0 mm 2 mps 724 mmHg 21%
    10:00 +20°C° 0 mm 1 mps 724 mmHg 19%
    11:00 +21°C° 0 mm 1 mps 724 mmHg 18%
    12:00 +22°C° 0 mm 1 mps 724 mmHg 16%
    13:00 +22°C° 0 mm 1 mps 723 mmHg 16%
    14:00 +22°C° 0 mm 1 mps 723 mmHg 16%
    15:00 +21°C° 0 mm 2 mps 722 mmHg 16%
    16:00 +20°C° 0 mm 1 mps 722 mmHg 21%
    17:00 +18°C° 0 mm 1 mps 722 mmHg 25%
    18:00 +16°C° 0 mm 1 mps 722 mmHg 29%
    19:00 +15°C° 0 mm 1 mps 722 mmHg 30%
    20:00 +13°C° 0 mm 0 mps 722 mmHg 31%
    21:00 +13°C° 0 mm 0 mps 722 mmHg 32%
    22:00 +12°C° 0 mm 0 mps 722 mmHg 32%
    23:00 +13°C° 0 mm 1 mps 722 mmHg 31%

    Day after tomorrow, 22 November, Wednesday

    Time Temperature Precipitation Wind Pressure Humidity
    00:00 +13°C° 0 mm 1 mps 722 mmHg 31%
    01:00 +12°C° 0 mm 1 mps 721 mmHg 31%
    02:00 +12°C° 0 mm 1 mps 721 mmHg 32%
    03:00 +12°C° 0 mm 1 mps 721 mmHg 33%
    04:00 +11°C° 0 mm 1 mps 721 mmHg 33%
    05:00 +11°C° 0 mm 1 mps 721 mmHg 34%
    06:00 +11°C° 0 mm 1 mps 721 mmHg 34%
    07:00 +13°C° 0 mm 1 mps 721 mmHg 30%
    08:00 +15°C° 0 mm 1 mps 722 mmHg 26%
    09:00 +18°C° 0 mm 1 mps 722 mmHg 22%
    10:00 +19°C° 0 mm 1 mps 722 mmHg 20%
    11:00 +20°C° 0 mm 1 mps 722 mmHg 19%
    12:00 +22°C° 0 mm 1 mps 722 mmHg 17%
    13:00 +22°C° 0 mm 1 mps 722 mmHg 17%
    14:00 +21°C° 0 mm 2 mps 721 mmHg 17%
    15:00 +21°C° 0 mm 2 mps 721 mmHg 17%
    16:00 +19°C° 0 mm 2 mps 721 mmHg 21%
    17:00 +17°C° 0 mm 2 mps 721 mmHg 25%
    18:00 +16°C° 0 mm 1 mps 721 mmHg 29%
    19:00 +15°C° 0 mm 1 mps 721 mmHg 30%
    20:00 +14°C° 0 mm 1 mps 721 mmHg 31%
    21:00 +14°C° 0 mm 1 mps 721 mmHg 32%
    22:00 +13°C° 0 mm 1 mps 721 mmHg 32%
    23:00 +13°C° 0 mm 1 mps 721 mmHg 32%

    23 November, Thursday

    Time Temperature Precipitation Wind Pressure Humidity
    00:00 +13°C° 0 mm 1 mps 721 mmHg 31%
    01:00 +13°C° 0 mm 1 mps 721 mmHg 31%
    02:00 +12°C° 0 mm 1 mps 721 mmHg 31%
    03:00 +12°C° 0 mm 1 mps 721 mmHg 31%
    04:00 +12°C° 0 mm 1 mps 721 mmHg 31%
    05:00 +12°C° 0 mm 1 mps 721 mmHg 31%
    06:00 +12°C° 0 mm 2 mps 721 mmHg 31%
    07:00 +13°C° 0 mm 2 mps 722 mmHg 29%
    08:00 +15°C° 0 mm 2 mps 723 mmHg 26%
    09:00 +17°C° 0 mm 2 mps 723 mmHg 24%
    10:00 +18°C° 0 mm 2 mps 723 mmHg 22%
    11:00 +20°C° 0 mm 2 mps 723 mmHg 20%
    12:00 +21°C° 0 mm 2 mps 723 mmHg 18%
    13:00 +21°C° 0 mm 2 mps 723 mmHg 18%
    14:00 +23°C° 0 mm 2 mps 723 mmHg 18%
    15:00 +23°C° 0 mm 2 mps 722 mmHg 17%
    16:00 +20°C° 0 mm 2 mps 722 mmHg 21%
    17:00 +18°C° 0 mm 2 mps 722 mmHg 24%
    18:00 +17°C° 0 mm 2 mps 722 mmHg 28%
    19:00 +16°C° 0 mm 2 mps 723 mmHg 28%
    20:00 +16°C° 0 mm 2 mps 723 mmHg 29%
    21:00 +15°C° 0 mm 2 mps 723 mmHg 29%
    22:00 +15°C° 0 mm 2 mps 723 mmHg 28%
    23:00 +15°C° 0 mm 2 mps 723 mmHg 28%

    24 November, Friday

    Time Temperature Precipitation Wind Pressure Humidity
    00:00 +15°C° 0 mm 2 mps 723 mmHg 28%
    01:00 +14°C° 0 mm 2 mps 723 mmHg 28%
    02:00 +14°C° 0 mm 2 mps 723 mmHg 28%
    03:00 +13°C° 0 mm 3 mps 723 mmHg 28%
    04:00 +12°C° 0 mm 3 mps 723 mmHg 28%
    05:00 +12°C° 0 mm 3 mps 723 mmHg 28%
    06:00 +12°C° 0 mm 3 mps 723 mmHg 28%
    07:00 +13°C° 0 mm 3 mps 723 mmHg 26%
    08:00 +16°C° 0 mm 3 mps 724 mmHg 24%
    09:00 +17°C° 0 mm 3 mps 724 mmHg 22%
    10:00 +19°C° 0 mm 3 mps 724 mmHg 21%
    11:00 +21°C° 0 mm 3 mps 724 mmHg 19%
    12:00 +23°C° 0 mm 2 mps 724 mmHg 17%
    13:00 +23°C° 0 mm 2 mps 724 mmHg 17%
    14:00 +23°C° 0 mm 2 mps 723 mmHg 18%
    15:00 +24°C° 0 mm 2 mps 723 mmHg 18%
    16:00 +21°C° 0 mm 2 mps 723 mmHg 21%
    17:00 +20°C° 0 mm 1 mps 723 mmHg 25%
    18:00 +18°C° 0 mm 1 mps 723 mmHg 28%
    19:00 +18°C° 0 mm 1 mps 723 mmHg 28%
    20:00 +16°C° 0 mm 2 mps 723 mmHg 28%
    21:00 +16°C° 0 mm 2 mps 723 mmHg 27%
    22:00 +16°C° 0 mm 2 mps 723 mmHg 28%
    23:00 +15°C° 0 mm 2 mps 723 mmHg 28%

    25 November, Saturday

    Time Temperature Precipitation Wind Pressure Humidity
    00:00 +15°C° 0 mm 2 mps 723 mmHg 29%
    01:00 +15°C° 0 mm 2 mps 723 mmHg 30%
    02:00 +14°C° 0 mm 2 mps 723 mmHg 31%
    03:00 +14°C° 0 mm 2 mps 723 mmHg 31%
    04:00 +13°C° 0 mm 3 mps 723 mmHg 32%
    05:00 +13°C° 0 mm 3 mps 723 mmHg 33%
    06:00 +12°C° 0 mm 3 mps 723 mmHg 33%
    07:00 +14°C° 0 mm 3 mps 723 mmHg 31%
    08:00 +16°C° 0 mm 3 mps 724 mmHg 29%
    09:00 +18°C° 0 mm 3 mps 724 mmHg 27%
    10:00 +19°C° 0 mm 3 mps 724 mmHg 25%
    11:00 +21°C° 0 mm 3 mps 724 mmHg 22%
    12:00 +23°C° 0 mm 2 mps 724 mmHg 19%
    13:00 +24°C° 0 mm 2 mps 723 mmHg 19%
    14:00 +24°C° 0 mm 3 mps 723 mmHg 19%
    15:00 +24°C° 0 mm 3 mps 723 mmHg 18%
    16:00 +23°C° 0 mm 2 mps 723 mmHg 22%
    17:00 +20°C° 0 mm 2 mps 723 mmHg 25%
    18:00 +20°C° 0 mm 1 mps 723 mmHg 28%
    19:00 +20°C° 0 mm 1 mps 723 mmHg 27%
    20:00 +19°C° 0 mm 2 mps 723 mmHg 27%
    21:00 +19°C° 0 mm 2 mps 724 mmHg 26%
    22:00 +18°C° 0 mm 2 mps 724 mmHg 27%
    23:00 +18°C° 0 mm 2 mps 724 mmHg 27%
    Show more